Regional Weather Roundup
Issued by NWS

Home | Current Version | Previous Version | Text Only | Print | Product List | Glossary On
Versions: 1 2 3 4 5 6 7 8 9 10 11 12 13 14 15 16 17 18 19 20 21 22 23 24 25 26 27 28 29 30 31 32 33 34 35 36 37 38 39 40 41 42 43 44 45 46 47 48 49 50
000
ASUS43 KOAX 221902
RWRNE

WEATHER ROUNDUP FOR NEBRASKA
NATIONAL WEATHER SERVICE OMAHA NE
200 PM CDT WED OCT 22 2014

NOTES: SATELLITE DATA IS BEING USED TO AUGMENT CLOUD COVER ABOVE
       12000 FEET.
       "FAIR" INDICATES FEW OR NO CLOUDS BELOW 12,000 FEET WITH NO
       SIGNIFICANT WEATHER AND/OR OBSTRUCTIONS TO VISIBILITY.

  * THESE STATIONS DO NOT REPORT WEATHER SUCH AS RAIN...SNOW OR FOG.

NEZ001>004-019>022-054>056-222000-
NEBRASKA PANHANDLE

CITY           SKY/WX    TMP DP  RH WIND       PRES   REMARKS
SCOTTSBLUFF    SUNNY     64  31  28 NW10G23   30.07F
ALLIANCE       SUNNY     63  33  32 NW15      30.05F
CHADRON        SUNNY     62  34  35 VRB7      30.03F
KIMBALL        SUNNY     62  34  35 N15G24    30.06F
SIDNEY         SUNNY     64  35  34 N13G24    30.07F
$$

NEZ057>060-069>072-079>082-222000-
SOUTHWEST NEBRASKA

CITY           SKY/WX    TMP DP  RH WIND       PRES   REMARKS
NORTH PLATTE   CLOUDY    64  53  67 CALM      30.02F
IMPERIAL       MOSUNNY   70  49  47 N9        30.03F
LEXINGTON      RAIN      61  56  84 CALM      29.99F
MCCOOK         CLOUDY    66  51  58 CALM      30.00F
OGALLALA       SUNNY     70  41  34 NW16      30.03F
$$

NEZ005>010-023>029-035>040-094-222000-
NORTH CENTRAL NEBRASKA

CITY           SKY/WX    TMP DP  RH WIND       PRES   REMARKS
VALENTINE      MOSUNNY   62  45  53 NW12      30.01F
AINSWORTH      CLOUDY    56  50  78 NW7       30.02S
BROKEN BOW     LGT RAIN  59  56  89 N5        29.99F
O`NEILL        RAIN      56  53  88 CALM      29.99S
ORD            LGT RAIN  63  54  72 W8        29.99S
THEDFORD       PTSUNNY   60  51  71 NW7       30.04R
$$

NEZ041-046>049-061>064-073>077-083>087-222000-
SOUTH CENTRAL NEBRASKA

CITY           SKY/WX    TMP DP  RH WIND       PRES   REMARKS
GRAND ISLAND   LGT RAIN  65  58  78 W12       30.00S
AURORA         PTSUNNY   77  50  38 S10G24    29.97F
HASTINGS       LGT RAIN  69  53  56 W15       29.99F
HEBRON         SUNNY     78  49  36 S20G29    30.00F
HOLDREGE       CLOUDY    61  57  88 CALM      30.01S
KEARNEY *      CLOUDY    63  57  82 S12       30.02S
YORK           PTSUNNY   77  52  41 S20G29    29.98F
$$

NEZ011>018-030>034-042>045-222000-
NORTHEAST NEBRASKA

CITY           SKY/WX    TMP DP  RH WIND       PRES   REMARKS
NORFOLK        CLOUDY    76  53  44 S14G25    29.95F
ALBION         LGT RAIN  67  56  66 SW8       29.98F
BLAIR          MOSUNNY   73  51  46 SE13      30.03F
COLUMBUS *     PTSUNNY   75  52  43 S20G30    29.99F
FREMONT        SUNNY     75  52  44 SE16G23   30.01F
TEKAMAH        MOSUNNY   74  54  49 S23       30.01F
WAYNE          MOSUNNY   76  52  43 S18G25    29.97F
$$

NEZ050>053-065>068-078-088>093-222000-
SOUTHEAST NEBRASKA

CITY           SKY/WX    TMP DP  RH WIND       PRES   REMARKS
LINCOLN        MOSUNNY   77  53  43 S20       30.00F
OMAHA EPPLEY   MOSUNNY   73  51  46 S22       30.04F
BEATRICE       MOSUNNY   77  54  45 S22G36    30.02F
FALLS CITY     LGT RAIN  74  55  51 S13       30.07F
NEBRASKA CITY  SUNNY     73  48  41 S17       30.06F
PLATTSMOUTH    SUNNY     72  49  44 SE10G17   30.06F
$$

NEZ044-045-051>053-067-222000-
OMAHA AREA

CITY           SKY/WX    TMP DP  RH WIND       PRES   REMARKS
OMAHA EPPLEY   MOSUNNY   73  51  46 S22       30.04F
BLAIR          MOSUNNY   73  51  46 SE13      30.03F
FREMONT        SUNNY     75  52  44 SE16G23   30.01F
MILLARD        SUNNY     74  55  49 SE15      30.03F
OFFUTT AFB     SUNNY     72  54  51 SE16      30.04F
PLATTSMOUTH    SUNNY     72  49  44 SE10G17   30.06F
WAHOO          FAIR      79  50  36 S22G28    30.00F
$$



USA.gov is the U.S. government's official web portal to all federal, state and local government web resources and services.